[Iaude] MPEC L69: THREE NEW TNOS
    mpec at cfa.harvard.edu 
    mpec at cfa.harvard.edu
       
    Thu Jun  6 12:25:47 EDT 2024
    
    
  
M.P.E.C. 2024-L69                                  Issued 2024 June 6, 16:24 UT
     The Minor Planet Electronic Circulars contain information on unusual
         minor planets, routine data on comets and natural satellites,
         and occasional editorial announcements.  They are published
    on behalf of Division F of the International Astronomical Union by the
          Minor Planet Center, Smithsonian Astrophysical Observatory,
                          Cambridge, MA 02138, U.S.A.
			  
             Prepared using the Tamkin Foundation Computer Network
                              MPC at CFA.HARVARD.EDU
            URL https://www.minorplanetcenter.net/    ISSN 1523-6714
                                 THREE NEW TNOS                                 
Observations:
     K19GI5G 1C2017 03 06.60731513 21 13.26 -00 00 57.0                WEL069T09
     K19GI5G 1C2017 04 01.49608713 19 25.99 +00 11 35.7                WEL069T09
     K19GI5G 1C2017 04 29.34146313 17 18.93 +00 23 27.9                WEL069T09
     K19GI5G 1C2019 03 30.62908413 30 58.37 -01 10 14.4                WEL069T09
     K19GI5G 1C2019 04 06.54291413 30 26.87 -01 06 58.0                WEL069T09
     K19GI5G 1C2019 04 06.57418713 30 26.72 -01 06 57.2                WEL069T09
     K19GI5G*4C2019 04 07.42061 13 30 22.80 -01 06 33.1          24.1 i1EL069T09
     K19GI5G 4C2019 04 07.46130 13 30 22.61 -01 06 32.1          24.6 i1EL069T09
     K19GI5G 4C2019 04 07.52052 13 30 22.33 -01 06 30.5          24.6 i1EL069T09
     K19GI5G 1C2019 05 09.50404813 27 57.19 -00 53 51.2                WEL069T09
     K19GI5G 4C2019 05 28.30153 13 26 47.89 -00 49 35.6          24.5 z1EL069T09
     K19GI5G 4C2019 05 28.34495 13 26 47.75 -00 49 35.1          24.4 z1EL069T09
     K19GI5G 4C2019 05 28.39613 13 26 47.59 -00 49 34.6          24.7 z1EL069T09
     K19GI5H 1C2015 03 17.53555413 01 25.35 +02 46 25.0                WEL069T09
     K19GI5H 1C2015 03 17.60782013 01 25.02 +02 46 27.4                WEL069T09
     K19GI5H 1C2017 04 26.35875813 12 34.97 +01 15 24.3                WEL069T09
     K19GI5H 1C2017 04 26.38871513 12 34.83 +01 15 25.0                WEL069T09
     K19GI5H 1C2019 03 11.59353313 30 44.48 -00 57 46.9                WEL069T09
     K19GI5H 1C2019 03 11.62715513 30 44.34 -00 57 46.2                WEL069T09
     K19GI5H*4C2019 04 07.42061 13 28 42.19 -00 44 22.3          23.5 i1EL069T09
     K19GI5H 4C2019 04 07.46130 13 28 41.99 -00 44 21.1          23.5 i1EL069T09
     K19GI5H 4C2019 04 07.51785 13 28 41.69 -00 44 19.4          24.1 i1EL069T09
     K19GI5H 1C2019 05 03.44582213 26 34.15 -00 33 18.1                WEL069T09
     K19GI5H 4C2019 05 28.27719 13 24 53.75 -00 27 18.9          24.5 z1EL069T09
     K19GI5H 4C2019 05 28.30153 13 24 53.64 -00 27 18.7          24.6 z1EL069T09
     K19GI5H 4C2019 05 28.35576 13 24 53.48 -00 27 18.2          23.9 z1EL069T09
     K19GI5H 4C2019 05 28.39613 13 24 53.35 -00 27 18.0          24.8 z1EL069T09
     K19GI5J 1C2017 04 01.47466713 29 44.19 +01 04 59.3                WEL069T09
     K19GI5J 1C2017 04 02.53110213 29 39.14 +01 05 26.4                WEL069T09
     K19GI5J 1C2019 03 11.59772013 40 36.63 -01 12 55.2                WEL069T09
     K19GI5J 1C2019 03 11.62924913 40 36.50 -01 12 54.2                WEL069T09
     K19GI5J*4C2019 04 07.42596 13 38 37.79 -01 01 41.1          24.7 i1EL069T09
     K19GI5J 4C2019 04 07.46665 13 38 37.57 -01 01 40.1          24.3 i1EL069T09
     K19GI5J 4C2019 04 07.52320 13 38 37.30 -01 01 38.5          24.5 i1EL069T09
     K19GI5J 1C2019 05 03.45000613 36 30.69 -00 52 28.3                WEL069T09
     K19GI5J 1C2019 05 09.49564313 36 02.83 -00 50 53.0                WEL069T09
     K19GI5J 4C2019 05 28.30688 13 34 46.64 -00 47 47.1          24.4 z1EL069T09
     K19GI5J 4C2019 05 28.34762 13 34 46.48 -00 47 46.9          24.9 z1EL069T09
     K19GI5J 4C2019 05 28.36121 13 34 46.45 -00 47 46.9          24.6 z1EL069T09
     K19GI5J 4C2019 05 28.39881 13 34 46.31 -00 47 46.6          24.7 z1EL069T09
     K19GI5J 4C2019 05 28.40148 13 34 46.29 -00 47 46.6          24.8 z1EL069T09
Observer details:
T09 Subaru Telescope, Maunakea.  Observers , H. Aihara, Y. AlSayyad, M. Ando,
    R. Armstrong, J. Bosch, E. Egami, H. Furusawa, J. Furusawa, S. Harasawa,
    Y. Harikane, B.-C. Hsieh, H. Ikeda, K. Ito, I. Iwata, T. Kodama, M. Koike,
    M. Kokubo, Y. Komiyama, X. Li, Y. Liang, Y.-T. Lin, R. H. Lupton, N. B.
    Lust, L. A. MacArthur, K. Mawatari, S. Mineo, H. Miyatake, S. Miyazaki, S.
    More, T. Morishima, H. Murayama, K. Nakajima, F. Nakata, A. J. Nishizawa,
    M. Oguri, N. Okabe, Y. Okura, Y. Ono, K. Osato, M. Ouchi, Y.-C. Pan, A. A.
    Plazas Malagon, P. A. Price, S. L. Reed, E. S. Rykoff, T. Shibuya, M.
    Simunovic, M. A. Strauss, K. Sugimori, Y. Suto, N. Suzuki, M. Takada, Y.
    Takagi, T. Takata, S. Takita, M. Tanaka, S. Tang, D. S. Taranu, T. Terai,
    Y. Toba, E. L. Turner, H. Uchiyama, B. Vijarnwannaluk, C. Z. Waters, Y.
    Yamada, N. Yamamoto, T. Yamashita.  Measurers S. Deen, T. G. Fisher, H.
    Fukuyama, A. Asai.  8.3-m Subaru Telescope + CCD, 8.2-m f/2.0 reflector +
    CCD(HSC).
Orbital elements:
2019 GG185                                                                      
Epoch 2024 Mar. 31.0 TT = JDT 2460400.5                 Alexandersen            
M 337.93576              (2000.0)            P               Q                  
n   0.00282699     Peri.  158.82430     -0.42760525     +0.89220051             
a  49.5358716      Node    85.61584     -0.84891254     -0.34107424             
e   0.2339213      Incl.    8.38332     -0.31064649     -0.29605170             
P 349              H    8.78          G   0.15           U   6                  
Residuals in seconds of arc
K1736  T09  0.0   0.0     K1946  T09  0.1+  0.1-    K195S  T09  0.0   0.1- 
K1741  T09  0.0   0.0     K1947  T09  0.1-  0.3+    K195S  T09  0.0   0.0  
K174T  T09  0.0   0.0     K1947  T09  0.1-  0.2+    K195S  T09  0.0   0.0  
K193U  T09  0.2+  0.1-    K1947  T09  0.1-  0.1+    
K1946  T09  0.2+  0.1-    K1959  T09  0.0   0.2-    
2019 GH185                                                                      
Epoch 2024 Mar. 31.0 TT = JDT 2460400.5                 Alexandersen            
M   1.23157              (2000.0)            P               Q                  
n   0.00182795     Peri.  130.14726     -0.88455785     +0.43899406             
a  66.2460944      Node    76.42253     -0.46185785     -0.77716455             
e   0.4530851      Incl.    9.33134     -0.06515171     -0.45088743             
P 539              H    8.83          G   0.15           U   6                  
Residuals in seconds of arc
K153H  T09  0.0   0.0     K193B  T09  0.0   0.4-    K195S  T09  0.2+  0.1+ 
K153H  T09  0.1+  0.1+    K1947  T09  0.1-  0.0     K195S  T09  0.2-  0.1+ 
K174Q  T09  0.1-  0.1-    K1947  T09  0.0   0.1+    K195S  T09  0.1+  0.2+ 
K174Q  T09  0.0   0.1-    K1947  T09  0.2-  0.1+    K195S  T09  0.2+  0.1+ 
K193B  T09  0.1+  0.1-    K1953  T09  0.0   0.1-    
2019 GJ185                                                                      
Epoch 2024 Mar. 31.0 TT = JDT 2460400.5                 Alexandersen            
M 339.77376              (2000.0)            P               Q                  
n   0.00317026     Peri.  193.95300     -0.55015439     +0.79109465             
a  45.8922705      Node    43.55819     -0.72411229     -0.29245276             
e   0.1639906      Incl.   22.83250     -0.41592251     -0.53725286             
P 311              H    8.95          G   0.15           U   7                  
Residuals in seconds of arc
K1741  T09  0.1-  0.1-    K1947  T09  0.2-  0.0     K195S  T09  0.2-  0.0  
K1742  T09  0.1+  0.1+    K1947  T09  0.0   0.2+    K195S  T09  0.1+  0.1- 
K193B  T09  0.1+  0.2-    K1953  T09  0.0   0.0     K195S  T09  0.0   0.0  
K193B  T09  0.1-  0.0     K1959  T09  0.1+  0.0     K195S  T09  0.1-  0.0  
K1947  T09  0.1+  0.0     K195S  T09  0.0   0.0     
M. P. C. Staff               (C) Copyright 2024 MPC           M.P.E.C. 2024-L69
    
    
More information about the Iaude
mailing list